Regional Weather Roundup
Issued by NWS Upton, NY

Current Version | Previous Version | Graphics & Text | Print | Product List | Glossary Off
Versions: 1 2 3 4 5 6 7 8 9 10 11 12 13 14 15 16 17 18 19 20 21 22 23 24 25 26 27 28 29 30 31 32 33 34 35 36 37 38 39 40 41 42 43 44 45 46 47 48 49 50

178
ASUS41 KOKX 200209
RWROKX

REGIONAL WEATHER ROUNDUP
NATIONAL WEATHER SERVICE NEW YORK NY
1000 PM EDT TUE SEP 19 2017

NOTE: "FAIR" INDICATES FEW OR NO CLOUDS BELOW 12,000 FEET WITH NO
SIGNIFICANT WEATHER AND/OR OBSTRUCTIONS TO VISIBILITY.

NYZ071-072-176-178-NJZ106-104-200300-
NEW YORK CITY METRO AREA

CITY           SKY/WX    TMP DP  RH WIND       PRES   REMARKS
Central Park   CLOUDY    71  65  81 NE10      29.91F
Bronx Bot Gard   N/A     70  63  78 NE10      29.89S
LaGuardia APRT CLOUDY    72  66  81 N15G24    29.87F
Kennedy INTL   CLOUDY    72  65  78 N17G30    29.86F
Breezy Point     N/A     72 N/A N/A N17G24      N/A
Newark/Liberty CLOUDY    71  65  81 N17       29.88S
Teterboro      CLOUDY    73  65  75 NE10G17   29.88F
$$

NYZ177-179-078>081-200300-
LONG ISLAND NEW YORK

CITY           SKY/WX    TMP DP  RH WIND       PRES   REMARKS
Jones Beach      N/A     70 N/A N/A N25G35      N/A
Matinecock PT    N/A     72 N/A N/A NE23        N/A
Farmingdale    CLOUDY    70  66  87 NE22G28   29.85F
MacArthur/ISP  LGT RAIN  69  67  93 N20G26    29.84F FOG
Shirley        RAIN      70  68  93 N13G21    29.84F FOG
Mt Sinai Harb    N/A    N/A N/A N/A N23G29      N/A
Westhampton    LGT RAIN  68  65  90 NE22G30   29.84F
East Hampton   NOT AVBL
Montauk          N/A     68  67  96 NE15G24   29.85F
$$

NYZ052-065-067-200300-
HUDSON VALLEY

CITY           SKY/WX    TMP DP  RH WIND       PRES   REMARKS
White Plains   CLOUDY    69  64  84 N15G22    29.89F
Larchmont Harb   N/A     70 N/A N/A N20G25      N/A
Croton On Huds   N/A     72 N/A N/A N3G12       N/A
Newburgh       MOCLDY    73  64  73 NE14      29.96F
Montgomery     CLOUDY    72  62  71 NE14      29.95S
Poughkeepsie   CLOUDY    71  63  75 N5        29.94S
Albany         MOCLDY    68  60  75 N3        30.01S
$$

NJZ001-105-106-008-010-013-015-019>022-104-200300-
NEW JERSEY

CITY           SKY/WX    TMP DP  RH WIND       PRES   REMARKS
Newark/Liberty CLOUDY    71  65  81 N17       29.88S
Teterboro      CLOUDY    73  65  75 NE10G17   29.88F
Caldwell       CLOUDY    70  67  90 VRB5      29.91F
Somerville     NOT AVBL
Linden         CLOUDY    72  64  76 NE8G18    29.88S
Perth Amboy      N/A     72 N/A N/A N16G25      N/A
Sussex         CLOUDY    73  63  70 NE9       29.95S
Andover          N/A     68  65  90 CALM      29.95S
Trenton        CLOUDY    69  66  90 N10       29.88F
Millville      CLOUDY    72  68  87 N12G20    29.84F
Atlantic City  CLOUDY    69  68  96 N14G24    29.82S
Wrightstown    MOCLDY    68  66  92 N14       29.83F
Toms River     LGT RAIN  69  67  93 N13       29.84F
Belmar         LGT RAIN  70  66  87 N16G26    29.85F
$$

PAZ047>061-062-071-200300-
EASTERN PENNSYLVANIA

CITY           SKY/WX    TMP DP  RH WIND       PRES   REMARKS
Philadelphia   CLOUDY    73  65  75 N15G26    29.88S
Allentown      CLOUDY    74  62  66 NE10      29.94R
Scranton       PTCLDY    68  61  78 E3        29.98S
$$

CTZ002-004>006-009-010-012-RIZ004-006-007-MAZ004-011-015-200300-
SOUTHERN NEW ENGLAND
 IN CT

CITY           SKY/WX    TMP DP  RH WIND       PRES   REMARKS
Bradley INTL   MOCLDY    69  65  86 N13       29.96F
Hartford       PTCLDY    70  66  87 N12G18    29.93F
Danbury        CLOUDY    70  65  84 NE10      29.94F
Wtrbury/Oxford CLOUDY    68  64  87 NE15G26   29.93F
Norwalk Harbor   N/A     70 N/A N/A N20G26      N/A
Bridgeport     MOCLDY    72  65  78 N22G29    29.87F
Meriden        MOCLDY    69  64  84 N10G21    29.92S
New Haven      MOCLDY    70  65  84 N18G25    29.88F
Chester        CLOUDY    70  66  88 NE12G18   29.90F
Groton         CLOUDY    69  64  84 NE22G29   29.86F
Wilimantic     CLOUDY    69  66  90 NE14      29.93F

 IN RI

CITY           SKY/WX    TMP DP  RH WIND       PRES   REMARKS
Providence     LGT RAIN  66  66 100 NE17      29.94S
Block Island   LGT RAIN  66  65  96 NE21G31   29.85F FOG
Westerly       LGT RAIN  69  66  90 NE12G22   29.88S
 IN MA

CITY           SKY/WX    TMP DP  RH WIND       PRES   REMARKS
Boston         LGT RAIN  63  63 100 N15       30.00R VSB 1
Worcester      FOG       63  62  97 NE14G25   30.00F VSB 1/2
Westfield      CLOUDY    70  65  84 N10       29.98F
Provincetown   CLOUDY    64  64 100 NE13      29.95F FOG
Nantucket      CLOUDY    66  66 100 NE18G25   29.85F
$$

ANZ330-335-338-340-345-350-353-355-200300-
COASTAL MARINE OBSERVATIONS


STATION/POSITION TIME  SKY/WX   TEMP    WIND        PRES    VSBY  WAVE
                                AIR SEA DIR/SP/G                  HT/PER
                 (UTC)          (F)     (DEG/KT/KT) (MB)    (MI)  (FT/S)
NY HARB ENTRANCE 0050            71 70   20/ 25/ 29 1008.9          9/12
20 S FIRE ISLAND 0150            70 68   30/ 27/ 33 1007.6         13/14
GREAT SOUTH BAY  0130            70 72   20/ 19/ 25   N/A
23 SSW MONTAUK P 0050            67 67              1008.8         13/12
15 E BARNEGAT LI 0130               70                N/A          12/13
HUDSON CANYON    0050            69 69   30/ 31/ 37 1002.9         18/ 8
KINGS POINT      0148            71 71   70/ 13/ 16 1012.4
EXECUTION ROCKS  0145            72      50/ 19/ 25   N/A
WESTERN LI SOUND NOT AVBL
CENTRAL LI SOUND 0145            71      40/ 19/ 23   N/A           3
EASTERN LI SOUND NOT AVBL
ROBBINS REEF     0148            72     360/ 20/ 24 1012.0
$$


>>>>>>>>>>>>>>>>>>>>>>>>>>>> KEY <<<<<<<<<<<<<<<<<<<<<<<<<<<
>                                                          <
>     SKY/WX - Sky Condition/Present Weather               <
>     TMP    - Temperature in Fahrenheit                   <
>     DP     - Dew Point in Fahrenheit                     <
>     RH     - Relative Humidity in Percent                <
>     WIND   - Direction (from) and Speed in MPH           <
>     PRES   - Mean Sea Level Pressure (inches of Hg)      <
>     WCI    - Wind Chill Index                            <
>     VSB    - VISIBILITY IN MILES                         <
>     HX     - HEAT INDEX                                  <
>     TC     - TEMPERATURE IN CELSIUS                      <
>     VRB    - VARIABLE WIND DIRECTION                     <
>                                                          <
>>>>>>>>>>>>>>>>>>>>>>>>>>>> KEY <<<<<<<<<<<<<<<<<<<<<<<<<<<




USA.gov is the U.S. government's official web portal to all federal, state and local government web resources and services.